DateTimeUTC,F1_A11,F1_S11,BsB_S11,BsG_S11,BsR_S11,BbsB_S11,BbsG_S11,BbsR_S11,BaB_A11,BaG_A11,BaR_A11,Tu_S11,T_S11,Uu_S11,U_S11,P_S11,T1_A11
2021-02-02T17:00:00Z,00000200,21000000,,,,,,,-000.87,-000.44,-000.28,15.2,22.8,,00.0,0628.3,30.8
2021-02-02T17:01:00Z,00000200,21000000,,,,,,,-000.27,-000.61,-000.02,15.1,22.8,,00.0,0628.3,30.8
2021-02-02T17:02:00Z,00000200,21000000,,,,,,,0000.42,0000.16,0000.05,15.1,22.8,,00.0,0628.4,30.8
2021-02-02T17:03:00Z,00000200,61000000,,,,,,,-000.92,-000.47,-000.24,15.1,22.8,,00.0,0628.4,30.8
2021-02-02T17:04:00Z,00000200,41000000,-000.13,0000.04,0000.03,-000.04,0000.00,-000.16,0000.02,-000.24,0000.07,15.4,22.5,,00.0,0629.3,30.8
2021-02-02T17:05:00Z,00000200,01000000,-000.07,-000.04,-000.04,0000.19,0000.06,-000.03,0000.24,0000.40,-000.14,15.5,22.5,,00.0,0629.5,30.8
2021-02-02T17:06:00Z,00000200,01000000,0000.10,0000.49,0000.35,-000.08,-000.02,0000.24,0000.09,-000.06,0000.18,15.5,22.5,,00.0,0629.5,30.8
2021-02-02T17:07:00Z,00000200,01000000,-000.05,0000.05,0000.30,-000.34,0000.13,-000.25,-000.33,-000.09,-000.33,15.6,22.5,,00.0,0629.5,30.8
2021-02-02T17:08:00Z,00000200,01000000,0000.12,0000.20,0000.21,0000.42,0000.22,0000.14,0000.15,-000.14,0000.70,15.6,22.5,,00.0,0629.5,30.8
2021-02-02T17:09:00Z,00000200,01000000,0000.05,0000.37,0000.23,0000.23,0000.15,0000.06,0000.05,-000.01,-000.39,15.7,22.5,,00.0,0629.6,30.8
2021-02-02T17:10:00Z,00000200,01000000,0000.10,0000.05,0000.08,0000.44,0000.01,0000.01,-000.13,0000.43,-000.09,15.7,22.5,,00.0,0629.6,30.9
2021-02-02T17:11:00Z,00000200,01000000,-000.12,0000.40,0000.18,0000.09,0000.13,-000.02,-000.07,-000.45,0000.23,15.8,22.6,,00.0,0629.6,30.9
2021-02-02T17:12:00Z,00000200,01000000,-000.12,-000.07,0000.19,0000.02,0000.11,0000.00,-000.01,0000.23,-000.59,15.7,22.5,,00.0,0629.6,30.8
2021-02-02T17:13:00Z,00000200,01000000,0000.15,-000.02,0000.06,0000.30,-000.03,0000.07,-000.15,0000.01,0000.35,15.7,22.5,,00.0,0629.6,30.8
2021-02-02T17:14:00Z,00000200,01000000,0000.49,0000.19,0000.10,0000.22,-000.09,-000.01,0000.01,-000.32,-000.17,15.6,22.5,,00.0,0629.7,30.8
2021-02-02T17:15:00Z,00000200,01000000,0000.57,0000.09,0000.22,0000.55,0000.13,0000.41,-000.13,0000.13,0000.00,15.5,22.4,,00.0,0629.7,30.8
2021-02-02T17:16:00Z,00000200,01000000,-000.75,0000.40,0000.09,-000.19,0000.17,-000.07,0000.12,-000.41,-000.03,15.5,22.4,,00.0,0629.7,30.8
2021-02-02T17:17:00Z,00000200,01000000,0000.34,0000.11,0000.10,0000.42,0000.18,-000.05,-000.29,0000.46,-000.10,15.5,22.4,,00.0,0629.7,30.8
2021-02-02T17:18:00Z,00000200,01000000,0000.18,0000.04,0000.29,-000.09,0000.17,-000.05,0000.13,-000.29,0000.25,15.5,22.4,,00.0,0629.7,30.8
2021-02-02T17:19:00Z,00000200,01000000,-000.32,-000.06,0000.01,0000.14,0000.37,-000.25,0000.08,-000.07,0000.01,15.5,22.4,,00.0,0629.7,30.8
2021-02-02T17:20:00Z,00000200,01000000,0000.48,0000.45,0000.10,-000.05,0000.15,-000.12,0000.08,0000.38,0000.08,15.5,22.4,,00.0,0629.7,30.8
2021-02-02T17:21:00Z,00000200,01000000,0000.20,0000.21,0000.03,0000.40,-000.02,0000.19,-000.02,-000.25,0000.00,15.6,22.4,,00.0,0629.7,30.8
2021-02-02T17:22:00Z,00000200,01000000,0000.08,0000.39,0000.11,0000.43,0000.17,0000.03,0000.13,0000.04,-000.25,15.6,22.4,,00.0,0629.7,30.8
2021-02-02T17:23:00Z,00000200,01000000,0000.02,0000.19,0000.06,0000.09,-000.04,-000.44,-000.06,0000.20,0000.33,15.7,22.5,,00.0,0629.7,30.8
2021-02-02T17:24:00Z,00000200,01000000,0000.44,-000.17,0000.09,0000.19,0000.10,0000.17,0000.20,0000.09,0000.19,15.7,22.5,,00.0,0629.7,30.8
2021-02-02T17:25:00Z,00000200,01000000,0000.05,0000.23,-000.04,-000.25,-000.12,-000.08,-000.17,0000.10,0000.04,15.8,22.5,,00.0,0629.7,30.8
2021-02-02T17:26:00Z,00000200,01000000,0000.18,0000.04,0000.37,-000.21,0000.01,0000.03,0000.16,-000.18,0000.05,15.8,22.5,,00.0,0629.8,30.9
2021-02-02T17:27:00Z,00000200,01000000,-000.53,-000.08,-000.02,0000.06,0000.28,0000.24,-000.00,0000.20,0000.11,15.9,22.5,,00.0,0629.8,30.9
2021-02-02T17:28:00Z,00000200,01000000,0000.43,0000.34,0000.04,-000.46,0000.17,-000.24,-000.09,-000.33,-000.01,15.9,22.6,,00.0,0629.8,30.9
2021-02-02T17:29:00Z,00000200,01000000,0000.10,0000.29,0000.38,0000.49,0000.16,-000.12,0000.17,0000.21,-000.42,15.8,22.5,,00.0,0629.8,30.9
2021-02-02T17:30:00Z,00000200,01000000,0000.20,0000.16,0000.42,0000.06,0000.21,-000.23,0000.24,0000.39,0000.12,15.8,22.5,,00.0,0629.8,30.8
2021-02-02T17:31:00Z,00000200,01000000,0000.04,0000.09,0000.30,0000.05,0000.16,-000.24,-000.10,-000.26,-000.03,15.7,22.5,,00.0,0629.8,30.8
2021-02-02T17:32:00Z,00000200,01000000,-000.14,0000.45,0000.07,-000.11,-000.31,0000.19,0000.33,0000.13,0000.37,15.7,22.5,,00.0,0629.8,30.8
2021-02-02T17:33:00Z,00000200,01000000,0000.22,0000.27,0000.07,-000.21,-000.03,0000.02,-000.03,0000.04,0000.15,15.7,22.5,,00.0,0629.8,30.8
2021-02-02T17:34:00Z,00000200,01000000,0000.45,0000.49,0000.25,0000.19,0000.27,0000.00,-000.13,-000.11,-000.19,15.7,22.5,,00.0,0629.9,30.8
2021-02-02T17:35:00Z,00000200,01000000,0000.45,0000.18,0000.03,-000.03,0000.03,0000.09,0000.28,0000.67,0000.27,15.8,22.5,,00.0,0629.9,30.8
2021-02-02T17:36:00Z,00000200,01000000,0000.81,0000.02,0000.09,0000.20,0000.15,0000.06,-000.20,-000.47,-000.12,15.8,22.5,,00.0,0629.9,30.8
2021-02-02T17:37:00Z,00000200,01000000,0000.92,0000.16,-000.07,0000.11,0000.01,0000.11,0000.05,-000.27,-000.04,15.8,22.5,,00.0,0630.0,30.8
2021-02-02T17:38:00Z,00000200,01000000,0000.53,-000.14,0000.14,0000.39,-000.05,-000.05,0000.02,0000.43,-000.04,15.9,22.5,,00.0,0630.1,30.9
2021-02-02T17:39:00Z,00000200,01000000,-000.24,0000.03,0000.19,-000.21,0000.17,-000.01,-000.09,0000.12,-000.09,15.9,22.6,,00.0,0630.1,30.9
2021-02-02T17:40:00Z,00000200,01000000,0000.53,0000.12,-000.19,0000.38,0000.05,0000.07,0000.03,-000.15,0000.48,15.9,22.6,,00.0,0630.0,30.9
2021-02-02T17:41:00Z,00000200,01000000,-000.48,0000.35,0000.34,0000.22,0000.04,0000.05,0000.18,-000.05,0000.01,16.0,22.6,,00.0,0630.1,30.9
2021-02-02T17:42:00Z,00000200,01000000,-000.19,0000.04,0000.19,-000.04,0000.08,-000.07,-000.28,-000.24,-000.48,16.0,22.6,,00.0,0630.0,30.9
2021-02-02T17:43:00Z,00000200,01000000,0000.42,0000.02,0000.03,0000.43,-000.21,0000.00,0000.17,0000.36,0000.23,16.0,22.6,,00.0,0630.0,30.9
2021-02-02T17:44:00Z,00000200,01000000,-000.64,0000.40,0000.09,0000.73,0000.01,-000.15,0000.02,0000.25,0000.16,15.9,22.6,,00.0,0630.0,30.9
2021-02-02T17:45:00Z,00000200,01000000,-000.46,0000.17,0000.03,0000.05,0000.26,-000.12,0000.12,-000.04,-000.23,15.8,22.6,,00.0,0630.0,30.8
2021-02-02T17:46:00Z,00000200,01000000,0000.48,0000.24,0000.15,0000.02,0000.18,0000.18,0000.08,-000.07,0000.37,15.7,22.5,,00.0,0630.0,30.8
2021-02-02T17:47:00Z,00000200,01000000,0000.23,-000.16,0000.02,-000.82,0000.22,-000.06,0000.19,0000.25,-000.00,15.7,22.5,,00.0,0630.0,30.8
2021-02-02T17:48:00Z,00000200,01000000,0000.60,0000.41,-000.02,0000.35,0000.35,-000.04,0000.13,-000.25,-000.24,15.8,22.5,,00.0,0630.0,30.8
2021-02-02T17:49:00Z,00000200,01000000,0000.58,-000.01,0000.06,0000.23,-000.22,0000.00,-000.05,0000.20,-000.11,15.8,22.5,,00.0,0630.0,30.8
2021-02-02T17:50:00Z,00000200,01000000,0000.39,0000.02,-000.22,0000.48,-000.16,-000.08,0000.23,-000.08,0000.60,15.8,22.5,,00.0,0630.0,30.8
2021-02-02T17:51:00Z,00000200,01000000,0000.11,0000.23,-000.02,-000.14,-000.05,0000.10,0000.25,0000.30,-000.12,15.8,22.5,,00.0,0630.0,30.8
2021-02-02T17:52:00Z,00000200,01000000,0000.34,0000.18,0000.17,-000.13,0000.10,-000.04,-000.09,0000.50,0000.25,15.9,22.6,,00.0,0630.0,30.9
2021-02-02T17:53:00Z,00000200,01000000,-000.40,0000.46,0000.12,0000.17,-000.04,0000.02,-000.22,-000.64,-000.35,15.9,22.6,,00.0,0630.0,30.9
2021-02-02T17:54:00Z,00000200,01000000,0000.09,0000.12,-000.03,-000.10,-000.15,0000.14,0000.34,0000.18,0000.45,15.9,22.6,,00.0,0630.0,30.8
2021-02-02T17:55:00Z,00000200,01000000,0000.49,0000.30,-000.04,0000.55,0000.18,0000.08,0000.03,0000.44,0000.09,15.8,22.5,,00.0,0630.0,30.8
2021-02-02T17:56:00Z,00000200,01000000,-000.16,0000.41,0000.05,0000.77,0000.27,0000.07,0000.28,0000.20,0000.10,15.7,22.5,,00.0,0630.0,30.8
2021-02-02T17:57:00Z,00000200,41000000,,,,,,,0001.76,0001.61,0001.00,15.7,22.6,,00.0,0630.0,30.8
2021-02-02T17:58:00Z,00000200,61000000,,,,,,,-000.11,-000.27,-000.10,15.1,22.6,,00.0,0629.0,30.8
2021-02-02T17:59:00Z,00000200,21000000,,,,,,,-000.51,-000.54,-000.44,15.1,22.7,,00.0,0629.0,30.8
